Etusivu
METAR-TAF:

METAR-TAF

Lentoasemat :

Munising, Michigan, Yhdysvallat

Leveyspiiri: 46-24N, Pituuspiiri: 086-39W, korkeus merenpinnasta: 187 m

Tämänhetkinen sää

Tämä raportti tehtiin 24 minuuttia sitten, kello 04.56 UTC
Tuuli 13 kn pohjoisesta
Lämpötila -4°C
Kosteus 86%
Ilmanpaine 1005 hPa

METAR: KP53 190456Z AUTO 01013KT M04/M06 A2967 RMK AO1 SLP057 P0001 T10391056 410171050

Aika: 00:20 (05:20 UTC)


TAF: puuttuu

Säähavainnot ja -ennusteet yli 4000 lentoasemalta (METAR- ja TAF-raportit).

Käytössä olevat sääasemat on merkitty karttaan keltaisilla ja punaisilla pisteillä.

Aseta hiiri pisteen päälle nähdäksesi sääaseman nimen.

Klikkaa sitten nähdäksesi säähavainnot ja -ennusteet.

Kartan vaihtaminen: klikkaa mustalla rastilla varustettuja vihreitä pisteitä, niin voit zoomata sisään; viivalla varustettua vihreää pistettä, niin voit zoomata ulos tai vihreitä nuolia, niin pääset viereisille kartoille.


METAR-TAF: